Location: Austin
(30.3000°N, 97.7500°W)
Time: 11:11:18
(UTC-05:00)

USA 186 - Pass Details

Date: 05 September 2024
Orbit: 372 x 420 km, 97.1° (Epoch: 10 September)

Event Time Altitude Azimuth Distance (km) Brightness Sun altitude
Exits shadow 21:09:56 43° 50° (NE) 588 2.2 -18.0°
Drops below altitude 10° 21:12:34 10° 2° (N) 1,483 4.7 -18.6°
Sets 21:14:37 0° 356° (N) 2,357 5.9 -19.0°
